Year,Month,Day,Hour,Minute,Value (Times are PST for temperature in C)
2007,01,31,00,00,3.10
2007,01,31,00,01,3.70
2007,01,31,00,02,4.00
2007,01,31,00,03,4.00
2007,01,31,00,04,4.10
2007,01,31,00,05,4.20
2007,01,31,00,06,4.20
2007,01,31,00,07,4.30
2007,01,31,00,08,4.30
2007,01,31,00,09,4.50
2007,01,31,00,10,4.60
2007,01,31,00,11,4.60
2007,01,31,00,12,4.60
2007,01,31,00,13,4.60
2007,01,31,00,14,4.60
2007,01,31,00,15,4.70
2007,01,31,00,16,4.70
2007,01,31,00,17,4.70
2007,01,31,00,18,4.80
2007,01,31,00,19,4.80
2007,01,31,00,20,4.80
2007,01,31,00,21,4.80
2007,01,31,00,22,4.90
2007,01,31,00,23,4.90
2007,01,31,00,24,4.90
2007,01,31,00,25,4.90
2007,01,31,00,26,4.90
2007,01,31,00,27,4.90
2007,01,31,00,28,4.80
2007,01,31,00,29,4.80
2007,01,31,00,30,4.80
2007,01,31,00,31,4.70
2007,01,31,00,32,4.60
2007,01,31,00,33,4.60
2007,01,31,00,34,4.60
2007,01,31,00,35,4.60
2007,01,31,00,36,4.50
2007,01,31,00,37,4.50
2007,01,31,00,38,4.50
2007,01,31,00,39,4.50
2007,01,31,00,40,4.50
2007,01,31,00,41,4.50
2007,01,31,00,42,4.50
2007,01,31,00,43,4.60
2007,01,31,00,44,4.60
2007,01,31,00,45,4.60
2007,01,31,00,46,4.60
2007,01,31,00,47,4.60
2007,01,31,00,48,4.60
2007,01,31,00,49,4.60
2007,01,31,00,50,4.50
2007,01,31,00,51,4.50
2007,01,31,00,52,4.50
2007,01,31,00,53,4.50
2007,01,31,00,54,4.50
2007,01,31,00,55,4.40
2007,01,31,00,56,4.30
2007,01,31,00,57,4.30
2007,01,31,00,58,4.30
2007,01,31,00,59,4.20
2007,01,31,01,00,4.20
2007,01,31,01,01,4.20
2007,01,31,01,02,4.20
2007,01,31,01,03,4.20
2007,01,31,01,04,4.20
2007,01,31,01,05,4.20
2007,01,31,01,06,4.20
2007,01,31,01,07,4.20
2007,01,31,01,08,4.30
2007,01,31,01,09,4.30
2007,01,31,01,10,4.30
2007,01,31,01,11,4.30
2007,01,31,01,12,4.30
2007,01,31,01,13,4.20
2007,01,31,01,14,4.10
2007,01,31,01,15,4.00
2007,01,31,01,16,4.00
2007,01,31,01,17,3.90
2007,01,31,01,18,3.80
2007,01,31,01,19,3.80
2007,01,31,01,20,3.70
2007,01,31,01,21,3.50
2007,01,31,01,22,3.40
2007,01,31,01,23,3.40
2007,01,31,01,24,3.40
2007,01,31,01,25,3.40
2007,01,31,01,26,3.40
2007,01,31,01,27,3.50
2007,01,31,01,28,3.80
2007,01,31,01,29,4.00
2007,01,31,01,30,4.20
2007,01,31,01,31,4.40
2007,01,31,01,32,4.60
2007,01,31,01,33,4.70
2007,01,31,01,34,4.80
2007,01,31,01,35,5.00
2007,01,31,01,36,5.10
2007,01,31,01,37,5.10
2007,01,31,01,38,5.10
2007,01,31,01,39,5.10
2007,01,31,01,40,5.10
2007,01,31,01,41,5.00
2007,01,31,01,42,4.90
2007,01,31,01,43,4.90
2007,01,31,01,44,4.80
2007,01,31,01,45,4.80
2007,01,31,01,46,4.70
2007,01,31,01,47,4.70
2007,01,31,01,48,4.60
2007,01,31,01,49,4.60
2007,01,31,01,50,4.60
2007,01,31,01,51,4.70
2007,01,31,01,52,4.70
2007,01,31,01,53,4.70
2007,01,31,01,54,4.70
2007,01,31,01,55,4.70
2007,01,31,01,56,4.70
2007,01,31,01,57,4.60
2007,01,31,01,58,4.60
2007,01,31,01,59,4.60
2007,01,31,02,00,4.60
2007,01,31,02,01,4.60
2007,01,31,02,02,4.60
2007,01,31,02,03,4.60
2007,01,31,02,04,4.60
2007,01,31,02,05,4.50
2007,01,31,02,06,4.50
2007,01,31,02,07,4.40
2007,01,31,02,08,4.40
2007,01,31,02,09,4.30
2007,01,31,02,10,4.20
2007,01,31,02,11,4.20
2007,01,31,02,12,4.20
2007,01,31,02,13,4.20
2007,01,31,02,14,4.20
2007,01,31,02,15,4.30
2007,01,31,02,16,4.30
2007,01,31,02,17,4.30
2007,01,31,02,18,4.40
2007,01,31,02,19,4.50
2007,01,31,02,20,4.50
2007,01,31,02,21,4.60
2007,01,31,02,22,4.70
2007,01,31,02,23,4.70
2007,01,31,02,24,4.80
2007,01,31,02,25,4.80
2007,01,31,02,26,4.90
2007,01,31,02,27,4.90
2007,01,31,02,28,5.00
2007,01,31,02,29,5.10
2007,01,31,02,30,5.10
2007,01,31,02,31,5.10
2007,01,31,02,32,5.10
2007,01,31,02,33,5.10
2007,01,31,02,34,5.10
2007,01,31,02,35,5.10
2007,01,31,02,36,5.10
2007,01,31,02,37,5.10
2007,01,31,02,38,5.10
2007,01,31,02,39,5.20
2007,01,31,02,40,5.20
2007,01,31,02,41,5.30
2007,01,31,02,42,5.20
2007,01,31,02,43,5.20
2007,01,31,02,44,5.10
2007,01,31,02,45,5.10
2007,01,31,02,46,5.00
2007,01,31,02,47,4.90
2007,01,31,02,48,4.90
2007,01,31,02,49,4.90
2007,01,31,02,50,4.90
2007,01,31,02,51,4.90
2007,01,31,02,52,4.90
2007,01,31,02,53,4.90
2007,01,31,02,54,4.90
2007,01,31,02,55,4.90
2007,01,31,02,56,4.90
2007,01,31,02,57,4.90
2007,01,31,02,58,4.90
2007,01,31,02,59,4.80
2007,01,31,03,00,4.80
2007,01,31,03,01,4.70
2007,01,31,03,02,4.70
2007,01,31,03,03,4.60
2007,01,31,03,04,4.60
2007,01,31,03,05,4.60
2007,01,31,03,06,4.50
2007,01,31,03,07,4.50
2007,01,31,03,08,4.50
2007,01,31,03,09,4.50
2007,01,31,03,10,4.40
2007,01,31,03,11,4.40
2007,01,31,03,12,4.40
2007,01,31,03,13,4.40
2007,01,31,03,14,4.30
2007,01,31,03,15,4.30
2007,01,31,03,16,4.30
2007,01,31,03,17,4.30
2007,01,31,03,18,4.30
2007,01,31,03,19,4.30
2007,01,31,03,20,4.40
2007,01,31,03,21,4.40
2007,01,31,03,22,4.40
2007,01,31,03,23,4.40
2007,01,31,03,24,4.50
2007,01,31,03,25,4.50
2007,01,31,03,26,4.60
2007,01,31,03,27,4.60
2007,01,31,03,28,4.60
2007,01,31,03,29,4.60
2007,01,31,03,30,4.50
2007,01,31,03,31,4.50
2007,01,31,03,32,4.40
2007,01,31,03,33,4.40
2007,01,31,03,34,4.30
2007,01,31,03,35,4.30
2007,01,31,03,36,4.30
2007,01,31,03,37,4.20
2007,01,31,03,38,4.20
2007,01,31,03,39,4.20
2007,01,31,03,40,4.10
2007,01,31,03,41,4.10
2007,01,31,03,42,4.00
2007,01,31,03,43,4.00
2007,01,31,03,44,3.90
2007,01,31,03,45,3.70
2007,01,31,03,46,3.40
2007,01,31,03,47,3.00
2007,01,31,03,48,2.80
2007,01,31,03,49,2.70
2007,01,31,03,50,2.50
2007,01,31,03,51,2.40
2007,01,31,03,52,2.30
2007,01,31,03,53,2.20
2007,01,31,03,54,2.10
2007,01,31,03,55,2.00
2007,01,31,03,56,1.90
2007,01,31,03,57,1.80
2007,01,31,03,58,1.80
2007,01,31,03,59,1.80
2007,01,31,04,00,1.80
2007,01,31,04,01,1.80
2007,01,31,04,02,1.90
2007,01,31,04,03,2.00
2007,01,31,04,04,2.10
2007,01,31,04,05,2.20
2007,01,31,04,06,2.30
2007,01,31,04,07,2.30
2007,01,31,04,08,2.30
2007,01,31,04,09,2.30
2007,01,31,04,10,2.30
2007,01,31,04,11,3.00
2007,01,31,04,12,3.20
2007,01,31,04,13,3.30
2007,01,31,04,14,3.30
2007,01,31,04,15,3.30
2007,01,31,04,16,3.40
2007,01,31,04,17,3.40
2007,01,31,04,18,3.40
2007,01,31,04,19,3.30
2007,01,31,04,20,3.30
2007,01,31,04,21,3.30
2007,01,31,04,22,3.30
2007,01,31,04,23,3.30
2007,01,31,04,24,3.20
2007,01,31,04,25,3.20
2007,01,31,04,26,3.10
2007,01,31,04,27,3.10
2007,01,31,04,28,2.90
2007,01,31,04,29,2.90
2007,01,31,04,30,2.80
2007,01,31,04,31,2.50
2007,01,31,04,32,2.20
2007,01,31,04,33,2.10
2007,01,31,04,34,2.00
2007,01,31,04,35,2.00
2007,01,31,04,36,1.90
2007,01,31,04,37,1.90
2007,01,31,04,38,1.80
2007,01,31,04,39,1.80
2007,01,31,04,40,1.80
2007,01,31,04,41,1.80
2007,01,31,04,42,1.80
2007,01,31,04,43,1.80
2007,01,31,04,44,1.80
2007,01,31,04,45,1.80
2007,01,31,04,46,1.80
2007,01,31,04,47,1.80
2007,01,31,04,48,1.90
2007,01,31,04,49,2.00
2007,01,31,04,50,2.10
2007,01,31,04,51,2.10
2007,01,31,04,52,2.10
2007,01,31,04,53,2.10
2007,01,31,04,54,2.10
2007,01,31,04,55,2.10
2007,01,31,04,56,2.00
2007,01,31,04,57,2.00
2007,01,31,04,58,1.90
2007,01,31,04,59,1.80
2007,01,31,05,00,1.70
2007,01,31,05,01,1.50
2007,01,31,05,02,1.40
2007,01,31,05,03,1.30
2007,01,31,05,04,1.20
2007,01,31,05,05,1.10
2007,01,31,05,06,1.00
2007,01,31,05,07,1.00
2007,01,31,05,08,1.00
2007,01,31,05,09,1.00
2007,01,31,05,10,1.00
2007,01,31,05,11,1.10
2007,01,31,05,12,1.20
2007,01,31,05,13,1.30
2007,01,31,05,14,1.40
2007,01,31,05,15,1.50
2007,01,31,05,16,1.60
2007,01,31,05,17,1.70
2007,01,31,05,18,1.80
2007,01,31,05,19,1.80
2007,01,31,05,20,1.80
2007,01,31,05,21,1.80
2007,01,31,05,22,1.80
2007,01,31,05,23,1.60
2007,01,31,05,24,1.50
2007,01,31,05,25,1.50
2007,01,31,05,26,1.50
2007,01,31,05,27,1.50
2007,01,31,05,28,1.60
2007,01,31,05,29,1.60
2007,01,31,05,30,1.60
2007,01,31,05,31,1.40
2007,01,31,05,32,1.20
2007,01,31,05,33,0.90
2007,01,31,05,34,0.70
2007,01,31,05,35,0.60
2007,01,31,05,36,0.50
2007,01,31,05,37,0.50
2007,01,31,05,38,0.50
2007,01,31,05,39,0.50
2007,01,31,05,40,0.40
2007,01,31,05,41,0.40
2007,01,31,05,42,0.50
2007,01,31,05,43,0.50
2007,01,31,05,44,0.60
2007,01,31,05,45,0.80
2007,01,31,05,46,0.90
2007,01,31,05,47,1.00
2007,01,31,05,48,1.10
2007,01,31,05,49,1.30
2007,01,31,05,50,1.30
2007,01,31,05,51,1.40
2007,01,31,05,52,1.50
2007,01,31,05,53,1.60
2007,01,31,05,54,1.70
2007,01,31,05,55,1.70
2007,01,31,05,56,1.80
2007,01,31,05,57,1.80
2007,01,31,05,58,1.80
2007,01,31,05,59,1.80
2007,01,31,06,00,1.80
2007,01,31,06,01,1.80
2007,01,31,06,02,1.80
2007,01,31,06,03,1.80
2007,01,31,06,04,1.90
2007,01,31,06,05,2.00
2007,01,31,06,06,2.00
2007,01,31,06,07,2.10
2007,01,31,06,08,2.10
2007,01,31,06,09,2.10
2007,01,31,06,10,2.10
2007,01,31,06,11,2.10
2007,01,31,06,12,2.10
2007,01,31,06,13,2.00
2007,01,31,06,14,2.00
2007,01,31,06,15,1.90
2007,01,31,06,16,1.80
2007,01,31,06,17,1.80
2007,01,31,06,18,1.80
2007,01,31,06,19,1.80
2007,01,31,06,20,1.80
2007,01,31,06,21,1.80
2007,01,31,06,22,1.80
2007,01,31,06,23,1.80
2007,01,31,06,24,1.80
2007,01,31,06,25,1.80
2007,01,31,06,26,1.80
2007,01,31,06,27,1.80
2007,01,31,06,28,1.80
2007,01,31,06,29,1.80
2007,01,31,06,30,1.80
2007,01,31,06,31,1.70
2007,01,31,06,32,1.60
2007,01,31,06,33,1.60
2007,01,31,06,34,1.50
2007,01,31,06,35,1.50
2007,01,31,06,36,1.40
2007,01,31,06,37,1.40
2007,01,31,06,38,1.30
2007,01,31,06,39,1.30
2007,01,31,06,40,1.30
2007,01,31,06,41,1.20
2007,01,31,06,42,1.20
2007,01,31,06,43,1.00
2007,01,31,06,44,0.80
2007,01,31,06,45,0.60
2007,01,31,06,46,0.60
2007,01,31,06,47,0.40
2007,01,31,06,48,0.30
2007,01,31,06,49,0.20
2007,01,31,06,50,0.10
2007,01,31,06,51,0.00
2007,01,31,06,52,-0.10
2007,01,31,06,53,-0.10
2007,01,31,06,54,-0.20
2007,01,31,06,55,-0.30
2007,01,31,06,56,-0.30
2007,01,31,06,57,-0.40
2007,01,31,06,58,-0.40
2007,01,31,06,59,-0.40
2007,01,31,07,00,-0.30
2007,01,31,07,01,-0.10
2007,01,31,07,02,0.10
2007,01,31,07,03,0.20
2007,01,31,07,04,0.40
2007,01,31,07,05,0.40
2007,01,31,07,06,0.40
2007,01,31,07,07,0.40
2007,01,31,07,08,0.50
2007,01,31,07,09,0.50
2007,01,31,07,10,0.50
2007,01,31,07,11,0.40
2007,01,31,07,12,0.40
2007,01,31,07,13,0.40
2007,01,31,07,14,0.40
2007,01,31,07,15,0.30
2007,01,31,07,16,0.20
2007,01,31,07,17,0.20
2007,01,31,07,18,0.20
2007,01,31,07,19,0.20
2007,01,31,07,20,0.20
2007,01,31,07,21,0.30
2007,01,31,07,22,0.40
2007,01,31,07,23,0.60
2007,01,31,07,24,0.70
2007,01,31,07,25,0.90
2007,01,31,07,26,1.00
2007,01,31,07,27,1.10
2007,01,31,07,28,1.20
2007,01,31,07,29,1.30
2007,01,31,07,30,1.30
2007,01,31,07,31,1.30
2007,01,31,07,32,1.30
2007,01,31,07,33,1.30
2007,01,31,07,34,1.20
2007,01,31,07,35,1.00
2007,01,31,07,36,0.90
2007,01,31,07,37,0.70
2007,01,31,07,38,0.50
2007,01,31,07,39,0.40
2007,01,31,07,40,0.30
2007,01,31,07,41,0.20
2007,01,31,07,42,0.10
2007,01,31,07,43,0.00
2007,01,31,07,44,0.10
2007,01,31,07,45,0.20
2007,01,31,07,46,0.40
2007,01,31,07,47,0.50
2007,01,31,07,48,0.70
2007,01,31,07,49,0.90
2007,01,31,07,50,1.10
2007,01,31,07,51,1.20
2007,01,31,07,52,1.40
2007,01,31,07,53,1.40
2007,01,31,07,54,1.60
2007,01,31,07,55,1.70
2007,01,31,07,56,1.70
2007,01,31,07,57,1.80
2007,01,31,07,58,1.80
2007,01,31,07,59,1.80
2007,01,31,08,00,1.90
2007,01,31,08,01,1.90
2007,01,31,08,02,1.90
2007,01,31,08,03,1.90
2007,01,31,08,04,2.00
2007,01,31,08,05,2.00
2007,01,31,08,06,2.00
2007,01,31,08,07,2.00
2007,01,31,08,08,2.00
2007,01,31,08,09,2.10
2007,01,31,08,10,2.10
2007,01,31,08,11,2.10
2007,01,31,08,12,2.10
2007,01,31,08,13,2.10
2007,01,31,08,14,2.20
2007,01,31,08,15,2.30
2007,01,31,08,16,2.30
2007,01,31,08,17,2.30
2007,01,31,08,18,2.40
2007,01,31,08,19,2.40
2007,01,31,08,20,2.40
2007,01,31,08,21,2.40
2007,01,31,08,22,2.50
2007,01,31,08,23,2.40
2007,01,31,08,24,2.40
2007,01,31,08,25,2.40
2007,01,31,08,26,2.40
2007,01,31,08,27,2.40
2007,01,31,08,28,2.40
2007,01,31,08,29,2.40
2007,01,31,08,30,2.40
2007,01,31,08,31,2.30
2007,01,31,08,32,2.20
2007,01,31,08,33,2.10
2007,01,31,08,34,1.90
2007,01,31,08,35,1.60
2007,01,31,08,36,1.40
2007,01,31,08,37,1.20
2007,01,31,08,38,1.00
2007,01,31,08,39,1.00
2007,01,31,08,40,1.10
2007,01,31,08,41,1.10
2007,01,31,08,42,1.10
2007,01,31,08,43,1.10
2007,01,31,08,44,1.00
2007,01,31,08,45,1.00
2007,01,31,08,46,0.90
2007,01,31,08,47,0.80
2007,01,31,08,48,0.60
2007,01,31,08,49,0.50
2007,01,31,08,50,0.50
2007,01,31,08,51,0.50
2007,01,31,08,52,0.40
2007,01,31,08,53,0.50
2007,01,31,08,54,0.50
2007,01,31,08,55,0.60
2007,01,31,08,56,0.70
2007,01,31,08,57,0.80
2007,01,31,08,58,0.80
2007,01,31,08,59,0.80
2007,01,31,09,00,0.90
2007,01,31,09,01,1.00
2007,01,31,09,02,1.20
2007,01,31,09,03,1.40
2007,01,31,09,04,1.50
2007,01,31,09,05,1.60
2007,01,31,09,06,1.80
2007,01,31,09,07,1.90
2007,01,31,09,08,2.10
2007,01,31,09,09,2.20
2007,01,31,09,10,2.30
2007,01,31,09,11,2.40
2007,01,31,09,12,2.40
2007,01,31,09,13,2.50
2007,01,31,09,14,2.60
2007,01,31,09,15,2.60
2007,01,31,09,16,2.60
2007,01,31,09,17,2.60
2007,01,31,09,18,2.70
2007,01,31,09,19,2.70
2007,01,31,09,20,2.80
2007,01,31,09,21,2.90
2007,01,31,09,22,2.90
2007,01,31,09,23,3.00
2007,01,31,09,24,3.10
2007,01,31,09,25,3.10
2007,01,31,09,26,3.20
2007,01,31,09,27,3.20
2007,01,31,09,28,3.30
2007,01,31,09,29,3.40
2007,01,31,09,30,3.50
2007,01,31,09,31,3.50
2007,01,31,09,32,3.60
2007,01,31,09,33,3.80
2007,01,31,09,34,3.80
2007,01,31,09,35,3.80
2007,01,31,09,36,3.90
2007,01,31,09,37,3.90
2007,01,31,09,38,3.90
2007,01,31,09,39,4.00
2007,01,31,09,40,4.00
2007,01,31,09,41,4.00
2007,01,31,09,42,4.10
2007,01,31,09,43,4.10
2007,01,31,09,44,4.20
2007,01,31,09,45,4.20
2007,01,31,09,46,4.20
2007,01,31,09,47,4.30
2007,01,31,09,48,4.40
2007,01,31,09,49,4.50
2007,01,31,09,50,4.50
2007,01,31,09,51,4.60
2007,01,31,09,52,4.70
2007,01,31,09,53,4.80
2007,01,31,09,54,4.90
2007,01,31,09,55,5.00
2007,01,31,09,56,5.10
2007,01,31,09,57,5.10
2007,01,31,09,58,5.10
2007,01,31,09,59,5.10
2007,01,31,10,00,5.10
2007,01,31,10,01,5.10
2007,01,31,10,02,5.20
2007,01,31,10,03,5.10
2007,01,31,10,04,5.10
2007,01,31,10,05,5.10
2007,01,31,10,06,5.10
2007,01,31,10,07,5.10
2007,01,31,10,08,5.10
2007,01,31,10,09,5.10
2007,01,31,10,10,5.20
2007,01,31,10,11,5.20
2007,01,31,10,12,5.20
2007,01,31,10,13,5.30
2007,01,31,10,14,5.30
2007,01,31,10,15,5.30
2007,01,31,10,16,5.30
2007,01,31,10,17,5.30
2007,01,31,10,18,5.30
2007,01,31,10,19,5.40
2007,01,31,10,20,5.40
2007,01,31,10,21,5.50
2007,01,31,10,22,5.50
2007,01,31,10,23,5.60
2007,01,31,10,24,5.60
2007,01,31,10,25,5.60
2007,01,31,10,26,5.70
2007,01,31,10,27,5.70
2007,01,31,10,28,5.70
2007,01,31,10,29,5.70
2007,01,31,10,30,5.70
2007,01,31,10,31,5.70
2007,01,31,10,32,5.80
2007,01,31,10,33,5.90
2007,01,31,10,34,5.90
2007,01,31,10,35,6.00
2007,01,31,10,36,6.00
2007,01,31,10,37,6.10
2007,01,31,10,38,6.10
2007,01,31,10,39,6.10
2007,01,31,10,40,6.10
2007,01,31,10,41,6.10
2007,01,31,10,42,6.20
2007,01,31,10,43,6.20
2007,01,31,10,44,6.20
2007,01,31,10,45,6.20
2007,01,31,10,46,6.20
2007,01,31,10,47,6.20
2007,01,31,10,48,6.20
2007,01,31,10,49,6.20
2007,01,31,10,50,6.30
2007,01,31,10,51,6.30
2007,01,31,10,52,6.40
2007,01,31,10,53,6.40
2007,01,31,10,54,6.40
2007,01,31,10,55,6.40
2007,01,31,10,56,6.40
2007,01,31,10,57,6.40
2007,01,31,10,58,6.40
2007,01,31,10,59,6.40
2007,01,31,11,00,6.40
2007,01,31,11,01,6.40
2007,01,31,11,02,6.40
2007,01,31,11,03,6.40
2007,01,31,11,04,6.40
2007,01,31,11,05,6.40
2007,01,31,11,06,6.40
2007,01,31,11,07,6.40
2007,01,31,11,08,6.40
2007,01,31,11,09,6.40
2007,01,31,11,10,6.50
2007,01,31,11,11,6.60
2007,01,31,11,12,6.60
2007,01,31,11,13,6.70
2007,01,31,11,14,6.80
2007,01,31,11,15,6.80
2007,01,31,11,16,6.80
2007,01,31,11,17,6.80
2007,01,31,11,18,6.80
2007,01,31,11,19,6.80
2007,01,31,11,20,6.80
2007,01,31,11,21,6.80
2007,01,31,11,22,6.80
2007,01,31,11,23,6.80
2007,01,31,11,24,6.80
2007,01,31,11,25,6.80
2007,01,31,11,26,6.90
2007,01,31,11,27,7.00
2007,01,31,11,28,7.00
2007,01,31,11,29,7.00
2007,01,31,11,30,7.10
2007,01,31,11,31,7.20
2007,01,31,11,32,7.20
2007,01,31,11,33,7.30
2007,01,31,11,34,7.30
2007,01,31,11,35,7.30
2007,01,31,11,36,7.30
2007,01,31,11,37,7.30
2007,01,31,11,38,7.30
2007,01,31,11,39,7.10
2007,01,31,11,40,7.10
2007,01,31,11,41,7.20
2007,01,31,11,42,7.20
2007,01,31,11,43,7.30
2007,01,31,11,44,7.30
2007,01,31,11,45,7.30
2007,01,31,11,46,7.30
2007,01,31,11,47,7.30
2007,01,31,11,48,7.30
2007,01,31,11,49,7.30
2007,01,31,11,50,7.30
2007,01,31,11,51,7.30
2007,01,31,11,52,7.30
2007,01,31,11,53,7.30
2007,01,31,11,54,7.30
2007,01,31,11,55,7.30
2007,01,31,11,56,7.30
2007,01,31,11,57,7.30
2007,01,31,11,58,7.40
2007,01,31,11,59,7.40
2007,01,31,12,00,7.40
2007,01,31,12,01,7.30
2007,01,31,12,02,7.40
2007,01,31,12,03,7.40
2007,01,31,12,04,7.30
2007,01,31,12,05,7.30
2007,01,31,12,06,7.30
2007,01,31,12,07,7.30
2007,01,31,12,08,7.20
2007,01,31,12,09,7.10
2007,01,31,12,10,7.00
2007,01,31,12,11,6.90
2007,01,31,12,12,6.90
2007,01,31,12,13,6.80
2007,01,31,12,14,6.80
2007,01,31,12,15,6.80
2007,01,31,12,16,6.80
2007,01,31,12,17,6.80
2007,01,31,12,18,6.80
2007,01,31,12,19,6.80
2007,01,31,12,20,6.90
2007,01,31,12,21,7.00
2007,01,31,12,22,7.10
2007,01,31,12,23,7.00
2007,01,31,12,24,7.10
2007,01,31,12,25,7.10
2007,01,31,12,26,7.30
2007,01,31,12,27,7.30
2007,01,31,12,28,7.30
2007,01,31,12,29,7.40
2007,01,31,12,30,7.50
2007,01,31,12,31,7.50
2007,01,31,12,32,7.50
2007,01,31,12,33,7.60
2007,01,31,12,34,7.60
2007,01,31,12,35,7.60
2007,01,31,12,36,7.60
2007,01,31,12,37,7.60
2007,01,31,12,38,7.60
2007,01,31,12,39,7.60
2007,01,31,12,40,7.60
2007,01,31,12,41,7.50
2007,01,31,12,42,7.50
2007,01,31,12,43,7.40
2007,01,31,12,44,7.30
2007,01,31,12,45,7.20
2007,01,31,12,46,7.20
2007,01,31,12,47,7.20
2007,01,31,12,48,7.10
2007,01,31,12,49,7.10
2007,01,31,12,50,7.10
2007,01,31,12,51,7.10
2007,01,31,12,52,7.10
2007,01,31,12,53,7.10
2007,01,31,12,54,7.20
2007,01,31,12,55,7.20
2007,01,31,12,56,7.30
2007,01,31,12,57,7.50
2007,01,31,12,58,7.60
2007,01,31,12,59,7.60
2007,01,31,13,00,7.60
2007,01,31,13,01,7.70
2007,01,31,13,02,7.70
2007,01,31,13,03,7.60
2007,01,31,13,04,7.60
2007,01,31,13,05,7.60
2007,01,31,13,06,7.60
2007,01,31,13,07,7.70
2007,01,31,13,08,7.80
2007,01,31,13,09,7.80
2007,01,31,13,10,7.80
2007,01,31,13,11,7.80
2007,01,31,13,12,7.90
2007,01,31,13,13,7.90
2007,01,31,13,14,7.90
2007,01,31,13,15,8.00
2007,01,31,13,16,8.00
2007,01,31,13,17,8.20
2007,01,31,13,18,8.20
2007,01,31,13,19,8.10
2007,01,31,13,20,7.90
2007,01,31,13,21,7.80
2007,01,31,13,22,7.80
2007,01,31,13,23,7.80
2007,01,31,13,24,7.90
2007,01,31,13,25,7.90
2007,01,31,13,26,8.10
2007,01,31,13,27,8.20
2007,01,31,13,28,8.20
2007,01,31,13,29,8.20
2007,01,31,13,30,8.20
2007,01,31,13,31,8.20
2007,01,31,13,32,8.20
2007,01,31,13,33,8.20
2007,01,31,13,34,8.20
2007,01,31,13,35,8.20
2007,01,31,13,36,8.20
2007,01,31,13,37,8.10
2007,01,31,13,38,8.10
2007,01,31,13,39,8.10
2007,01,31,13,40,8.20
2007,01,31,13,41,8.20
2007,01,31,13,42,8.30
2007,01,31,13,43,8.30
2007,01,31,13,44,8.30
2007,01,31,13,45,8.30
2007,01,31,13,46,8.30
2007,01,31,13,47,8.30
2007,01,31,13,48,8.30
2007,01,31,13,49,8.30
2007,01,31,13,50,8.30
2007,01,31,13,51,8.30
2007,01,31,13,52,8.30
2007,01,31,13,53,8.30
2007,01,31,13,54,8.30
2007,01,31,13,55,8.20
2007,01,31,13,56,8.20
2007,01,31,13,57,8.20
2007,01,31,13,58,8.20
2007,01,31,13,59,8.20
2007,01,31,14,00,8.20
2007,01,31,14,01,8.30
2007,01,31,14,02,8.30
2007,01,31,14,03,8.30
2007,01,31,14,04,8.30
2007,01,31,14,05,8.30
2007,01,31,14,06,8.50
2007,01,31,14,07,8.70
2007,01,31,14,08,8.80
2007,01,31,14,09,8.80
2007,01,31,14,10,8.80
2007,01,31,14,11,8.70
2007,01,31,14,12,8.70
2007,01,31,14,13,8.70
2007,01,31,14,14,8.70
2007,01,31,14,15,8.70
2007,01,31,14,16,8.70
2007,01,31,14,17,8.70
2007,01,31,14,18,8.70
2007,01,31,14,19,8.80
2007,01,31,14,20,8.80
2007,01,31,14,21,8.80
2007,01,31,14,22,8.80
2007,01,31,14,23,8.90
2007,01,31,14,24,8.90
2007,01,31,14,25,8.90
2007,01,31,14,26,8.90
2007,01,31,14,27,8.90
2007,01,31,14,28,8.90
2007,01,31,14,29,8.90
2007,01,31,14,30,8.90
2007,01,31,14,31,9.00
2007,01,31,14,32,9.10
2007,01,31,14,33,9.20
2007,01,31,14,34,9.20
2007,01,31,14,35,9.30
2007,01,31,14,36,9.30
2007,01,31,14,37,9.10
2007,01,31,14,38,9.10
2007,01,31,14,39,9.00
2007,01,31,14,40,9.00
2007,01,31,14,41,8.90
2007,01,31,14,42,9.00
2007,01,31,14,43,9.00
2007,01,31,14,44,9.00
2007,01,31,14,45,9.00
2007,01,31,14,46,8.90
2007,01,31,14,47,8.90
2007,01,31,14,48,8.90
2007,01,31,14,49,8.80
2007,01,31,14,50,8.80
2007,01,31,14,51,8.70
2007,01,31,14,52,8.70
2007,01,31,14,53,8.70
2007,01,31,14,54,8.70
2007,01,31,14,55,8.70
2007,01,31,14,56,8.70
2007,01,31,14,57,8.70
2007,01,31,14,58,8.60
2007,01,31,14,59,8.60
2007,01,31,15,00,8.60
2007,01,31,15,01,8.50
2007,01,31,15,02,8.50
2007,01,31,15,03,8.40
2007,01,31,15,04,8.30
2007,01,31,15,05,8.30
2007,01,31,15,06,8.30
2007,01,31,15,07,8.40
2007,01,31,15,08,8.50
2007,01,31,15,09,8.50
2007,01,31,15,10,8.50
2007,01,31,15,11,8.50
2007,01,31,15,12,8.50
2007,01,31,15,13,8.50
2007,01,31,15,14,8.50
2007,01,31,15,15,8.40
2007,01,31,15,16,8.40
2007,01,31,15,17,8.30
2007,01,31,15,18,8.40
2007,01,31,15,19,8.40
2007,01,31,15,20,8.50
2007,01,31,15,21,8.50
2007,01,31,15,22,8.60
2007,01,31,15,23,8.60
2007,01,31,15,24,8.70
2007,01,31,15,25,8.70
2007,01,31,15,26,8.70
2007,01,31,15,27,8.70
2007,01,31,15,28,8.70
2007,01,31,15,29,8.70
2007,01,31,15,30,8.70
2007,01,31,15,31,8.80
2007,01,31,15,32,8.80
2007,01,31,15,33,8.80
2007,01,31,15,34,8.80
2007,01,31,15,35,8.80
2007,01,31,15,36,8.80
2007,01,31,15,37,8.70
2007,01,31,15,38,8.70
2007,01,31,15,39,8.70
2007,01,31,15,40,8.80
2007,01,31,15,41,8.80
2007,01,31,15,42,8.80
2007,01,31,15,43,8.80
2007,01,31,15,44,8.70
2007,01,31,15,45,8.70
2007,01,31,15,46,8.70
2007,01,31,15,47,8.70
2007,01,31,15,48,8.70
2007,01,31,15,49,8.70
2007,01,31,15,50,8.60
2007,01,31,15,51,8.60
2007,01,31,15,52,8.50
2007,01,31,15,53,8.50
2007,01,31,15,54,8.50
2007,01,31,15,55,8.50
2007,01,31,15,56,8.50
2007,01,31,15,57,8.40
2007,01,31,15,58,8.40
2007,01,31,15,59,8.30
2007,01,31,16,00,8.30
2007,01,31,16,01,8.40
2007,01,31,16,02,8.40
2007,01,31,16,03,8.40
2007,01,31,16,04,8.50
2007,01,31,16,05,8.50
2007,01,31,16,06,8.50
2007,01,31,16,07,8.60
2007,01,31,16,08,8.60
2007,01,31,16,09,8.70
2007,01,31,16,10,8.70
2007,01,31,16,11,8.70
2007,01,31,16,12,8.80
2007,01,31,16,13,8.90
2007,01,31,16,14,8.90
2007,01,31,16,15,8.90
2007,01,31,16,16,9.00
2007,01,31,16,17,9.00
2007,01,31,16,18,9.00
2007,01,31,16,19,9.10
2007,01,31,16,20,9.10
2007,01,31,16,21,9.10
2007,01,31,16,22,9.10
2007,01,31,16,23,9.10
2007,01,31,16,24,9.10
2007,01,31,16,25,9.00
2007,01,31,16,26,9.00
2007,01,31,16,27,9.00
2007,01,31,16,28,9.00
2007,01,31,16,29,9.00
2007,01,31,16,30,9.00
2007,01,31,16,31,9.10
2007,01,31,16,32,9.10
2007,01,31,16,33,9.10
2007,01,31,16,34,9.10
2007,01,31,16,35,9.10
2007,01,31,16,36,9.00
2007,01,31,16,37,9.00
2007,01,31,16,38,9.00
2007,01,31,16,39,9.00
2007,01,31,16,40,8.90
2007,01,31,16,41,8.90
2007,01,31,16,42,8.80
2007,01,31,16,43,8.70
2007,01,31,16,44,8.70
2007,01,31,16,45,8.60
2007,01,31,16,46,8.60
2007,01,31,16,47,8.50
2007,01,31,16,48,8.50
2007,01,31,16,49,8.50
2007,01,31,16,50,8.50
2007,01,31,16,51,8.40
2007,01,31,16,52,8.40
2007,01,31,16,53,8.40
2007,01,31,16,54,8.40
2007,01,31,16,55,8.30
2007,01,31,16,56,8.30
2007,01,31,16,57,8.20
2007,01,31,16,58,8.20
2007,01,31,16,59,8.20
2007,01,31,17,00,8.10
2007,01,31,17,01,8.10
2007,01,31,17,02,8.00
2007,01,31,17,03,8.00
2007,01,31,17,04,7.90
2007,01,31,17,05,7.90
2007,01,31,17,06,7.90
2007,01,31,17,07,7.90
2007,01,31,17,08,7.80
2007,01,31,17,09,7.80
2007,01,31,17,10,7.80
2007,01,31,17,11,7.80
2007,01,31,17,12,7.70
2007,01,31,17,13,7.70
2007,01,31,17,14,7.60
2007,01,31,17,15,7.60
2007,01,31,17,16,7.50
2007,01,31,17,17,7.50
2007,01,31,17,18,7.40
2007,01,31,17,19,7.30
2007,01,31,17,20,7.30
2007,01,31,17,21,7.20
2007,01,31,17,22,7.10
2007,01,31,17,23,7.10
2007,01,31,17,24,7.00
2007,01,31,17,25,7.00
2007,01,31,17,26,6.90
2007,01,31,17,27,6.90
2007,01,31,17,28,6.80
2007,01,31,17,29,6.80
2007,01,31,17,30,6.80
2007,01,31,17,31,6.80
2007,01,31,17,32,6.70
2007,01,31,17,33,6.70
2007,01,31,17,34,6.70
2007,01,31,17,35,6.60
2007,01,31,17,36,6.60
2007,01,31,17,37,6.60
2007,01,31,17,38,6.50
2007,01,31,17,39,6.40
2007,01,31,17,40,6.40
2007,01,31,17,41,6.30
2007,01,31,17,42,6.20
2007,01,31,17,43,6.20
2007,01,31,17,44,6.10
2007,01,31,17,45,6.00
2007,01,31,17,46,6.00
2007,01,31,17,47,6.00
2007,01,31,17,48,6.00
2007,01,31,17,49,6.00
2007,01,31,17,50,6.00
2007,01,31,17,51,5.80
2007,01,31,17,52,5.90
2007,01,31,17,53,5.90
2007,01,31,17,54,5.90
2007,01,31,17,55,5.90
2007,01,31,17,56,5.90
2007,01,31,17,57,5.80
2007,01,31,17,58,5.80
2007,01,31,17,59,5.70
2007,01,31,18,00,5.70
2007,01,31,18,01,5.70
2007,01,31,18,02,5.70
2007,01,31,18,03,5.70
2007,01,31,18,04,5.60
2007,01,31,18,05,5.60
2007,01,31,18,06,5.50